Weather in Halderberge

Netherlands     51°35′19″N   4°32′01″E
temp.,
°C
wind,
m/s
gust,
m/s
humid.,
%
clouds,
%
prec.,
mm/h
press.,
hPa
HPBL,
m
27 october, wed
wed2723:00+14sw61282100 0.0 1021828
02:00+12sw6138910 0.0 1021446
05:00+12sw61490100 0.0 1021399
08:00+11sw51491100 0.0 1021367
11:00+13ssw6128064 0.0 1022488
14:00+16sw710657 0.0 1021763
17:00+16sw596427 0.0 1021686
20:00+12s4108131 0.0 1020215
28 october, thu
thu2823:00+11s410859 0.0 1020217
02:00+10s49915 0.0 1019196
05:00+9s4109265 0.0 1018196
08:00+9s49941 0.0 1017189
11:00+12s511700 0.0 1016391
14:00+16s610560 0.0 1014679
17:00+15s510600 0.0 1012590
20:00+12s511750 0.0 1012277
29 october, fri
fri2923:00+11s513754 0.0 1011310
02:00+10sse513799 0.0 1010267
05:00+10sse5137928 0.0 1008276
08:00+10sse51276100 0.0 1008269
11:00+13sse61467100 0.0 1007473
14:00+16s71359100 0.0 1006741
17:00+15s71460100 0.0 1004880
20:00+15s91661100 0.0 10041345
30 october, sat
sat3023:00+14s81472100 0.2 1004879
02:00+13ssw71379100 0.4 1004902
05:00+11sw71489100 0.4 1005549
08:00+10ssw6129314 0.4 1007435
11:00+12ssw61381100 0.0 1008690
14:00+15ssw7106699 0.0 1008976
17:00+14s5976100 0.1 1007628
20:00+11sse5119047 0.1 1006327
31 october, sun
sun3123:00+13sse61482100 0.4 1004684
02:00+12sse71583100 0.4 1001601
04:00+12sse71486100 0.1 997623
07:00+13sse81691100 2.9 993860
10:00+12wsw7168881 2.4 995882
13:00+14wsw1117725 2.8 9971669
16:00+12sw91670100 0.3 9991480
19:00+11sw9157598 0.5 1000994